Time,TemperatureF,DewpointF,PressureIn,WindDirection,WindDirectionDegrees,WindSpeedMPH,WindSpeedGustMPH,Humidity,HourlyPrecipIn,Conditions,Clouds,dailyrainin,SoftwareType,DateUTC
2013-06-27 00:13:00,55.9,55.0,30.11,NE,39,1.0,4.0,96,0.00,,,0.00,weatherlink.com 1.10,2013-06-27 07:13:00,
2013-06-27 00:28:00,55.7,55.0,30.11,NE,37,3.0,5.0,96,0.00,,,0.00,weatherlink.com 1.10,2013-06-27 07:28:00,
2013-06-27 00:43:00,55.7,55.0,30.12,East,79,0.0,4.0,96,0.00,,,0.00,weatherlink.com 1.10,2013-06-27 07:43:00,
2013-06-27 00:59:00,55.7,55.0,30.11,NE,50,0.0,4.0,96,0.00,,,0.00,weatherlink.com 1.10,2013-06-27 07:59:00,
2013-06-27 01:14:00,55.5,54.0,30.11,NE,47,3.0,4.0,96,0.00,,,0.00,weatherlink.com 1.10,2013-06-27 08:14:00,
2013-06-27 01:29:00,55.2,54.0,30.11,ENE,58,3.0,6.0,96,0.00,,,0.00,weatherlink.com 1.10,2013-06-27 08:29:00,
2013-06-27 01:44:00,54.8,54.0,30.11,East,89,3.0,5.0,97,0.00,,,0.00,weatherlink.com 1.10,2013-06-27 08:44:00,
2013-06-27 01:59:00,54.2,53.0,30.11,ENE,65,5.0,6.0,97,0.00,,,0.00,weatherlink.com 1.10,2013-06-27 08:59:00,
2013-06-27 02:14:00,54.4,54.0,30.11,NNE,32,4.0,6.0,98,0.00,,,0.00,weatherlink.com 1.10,2013-06-27 09:14:00,
2013-06-27 02:29:00,54.3,54.0,30.11,ENE,69,3.0,5.0,98,0.00,,,0.00,weatherlink.com 1.10,2013-06-27 09:29:00,
2013-06-27 02:44:00,53.7,53.0,30.11,NE,46,2.0,5.0,97,0.00,,,0.00,weatherlink.com 1.10,2013-06-27 09:44:00,
2013-06-27 02:59:00,53.6,53.0,30.11,East,89,1.0,3.0,98,0.00,,,0.00,weatherlink.com 1.10,2013-06-27 09:59:00,
2013-06-27 03:14:00,53.7,53.0,30.11,East,96,0.0,5.0,98,0.00,,,0.00,weatherlink.com 1.10,2013-06-27 10:14:00,
2013-06-27 03:29:00,53.4,53.0,30.11,East,81,0.0,4.0,97,0.00,,,0.00,weatherlink.com 1.10,2013-06-27 10:29:00,
2013-06-27 03:44:00,53.2,53.0,30.12,East,98,3.0,3.0,98,0.00,,,0.00,weatherlink.com 1.10,2013-06-27 10:44:00,
2013-06-27 03:59:00,53.2,53.0,30.12,East,93,1.0,5.0,98,0.00,,,0.00,weatherlink.com 1.10,2013-06-27 10:59:00,
2013-06-27 04:14:00,53.6,53.0,30.11,East,89,1.0,5.0,98,0.00,,,0.00,weatherlink.com 1.10,2013-06-27 11:14:00,
2013-06-27 04:29:00,53.9,53.0,30.11,ENE,77,2.0,4.0,98,0.00,,,0.00,weatherlink.com 1.10,2013-06-27 11:29:00,
2013-06-27 04:44:00,54.3,54.0,30.12,ENE,67,2.0,5.0,98,0.00,,,0.00,weatherlink.com 1.10,2013-06-27 11:44:00,
2013-06-27 04:59:00,54.6,54.0,30.12,East,80,1.0,6.0,99,0.00,,,0.00,weatherlink.com 1.10,2013-06-27 11:59:00,
2013-06-27 05:14:00,54.4,54.0,30.12,ENE,66,3.0,8.0,98,0.00,,,0.00,weatherlink.com 1.10,2013-06-27 12:14:00,
2013-06-27 05:29:00,53.9,53.0,30.12,East,98,2.0,6.0,98,0.00,,,0.00,weatherlink.com 1.10,2013-06-27 12:29:00,
2013-06-27 05:44:00,54.1,54.0,30.12,ENE,78,6.0,8.0,98,0.00,,,0.00,weatherlink.com 1.10,2013-06-27 12:44:00,
2013-06-27 05:59:00,54.4,54.0,30.12,NNE,29,7.0,8.0,98,0.00,,,0.00,weatherlink.com 1.10,2013-06-27 12:59:00,
2013-06-27 06:14:00,54.5,54.0,30.12,East,90,4.0,7.0,98,0.00,,,0.00,weatherlink.com 1.10,2013-06-27 13:14:00,
2013-06-27 06:29:00,54.7,54.0,30.13,NNE,23,4.0,7.0,98,0.00,,,0.00,weatherlink.com 1.10,2013-06-27 13:29:00,
2013-06-27 06:44:00,54.9,54.0,30.13,NE,41,5.0,8.0,98,0.00,,,0.00,weatherlink.com 1.10,2013-06-27 13:44:00,
2013-06-27 06:59:00,55.0,54.0,30.13,NE,56,2.0,8.0,97,0.00,,,0.00,weatherlink.com 1.10,2013-06-27 13:59:00,
2013-06-27 07:14:00,55.2,54.0,30.14,NE,47,6.0,8.0,97,0.00,,,0.00,weatherlink.com 1.10,2013-06-27 14:14:00,
2013-06-27 07:29:00,55.8,55.0,30.14,ENE,65,3.0,5.0,97,0.00,,,0.00,weatherlink.com 1.10,2013-06-27 14:29:00,
2013-06-27 07:44:00,56.9,56.0,30.14,ENE,57,4.0,6.0,95,0.00,,,0.00,weatherlink.com 1.10,2013-06-27 14:44:00,
2013-06-27 07:59:00,58.1,56.0,30.15,ENE,68,6.0,7.0,92,0.00,,,0.00,weatherlink.com 1.10,2013-06-27 14:59:00,
2013-06-27 08:15:00,58.6,56.0,30.15,East,94,4.0,8.0,91,0.00,,,0.00,weatherlink.com 1.10,2013-06-27 15:15:00,
2013-06-27 08:29:00,59.3,56.0,30.15,ENE,60,6.0,8.0,90,0.00,,,0.00,weatherlink.com 1.10,2013-06-27 15:29:00,
2013-06-27 08:44:00,60.7,57.0,30.14,ENE,63,6.0,8.0,88,0.00,,,0.00,weatherlink.com 1.10,2013-06-27 15:44:00,
2013-06-27 08:59:00,61.5,58.0,30.14,ENE,78,4.0,8.0,88,0.00,,,0.00,weatherlink.com 1.10,2013-06-27 15:59:00,
2013-06-27 09:15:00,62.6,58.0,30.14,ENE,60,4.0,9.0,86,0.00,,,0.00,weatherlink.com 1.10,2013-06-27 16:15:00,
2013-06-27 09:30:00,63.7,59.0,30.14,ENE,60,3.0,7.0,84,0.00,,,0.00,weatherlink.com 1.10,2013-06-27 16:30:00,
2013-06-27 09:45:00,64.1,58.0,30.13,ENE,73,5.0,9.0,81,0.00,,,0.00,weatherlink.com 1.10,2013-06-27 16:45:00,
2013-06-27 10:00:00,65.0,59.0,30.13,NE,54,2.0,8.0,80,0.00,,,0.00,weatherlink.com 1.10,2013-06-27 17:00:00,
2013-06-27 10:15:00,66.5,60.0,30.14,SSE,153,3.0,7.0,80,0.00,,,0.00,weatherlink.com 1.10,2013-06-27 17:15:00,
2013-06-27 10:30:00,67.4,61.0,30.14,SSE,155,3.0,8.0,79,0.00,,,0.00,weatherlink.com 1.10,2013-06-27 17:30:00,
2013-06-27 10:45:00,68.9,60.0,30.13,ESE,110,4.0,5.0,74,0.00,,,0.00,weatherlink.com 1.10,2013-06-27 17:45:00,
2013-06-27 11:00:00,68.7,60.0,30.13,ESE,110,2.0,6.0,74,0.00,,,0.00,weatherlink.com 1.10,2013-06-27 18:00:00,
2013-06-27 11:15:00,70.2,61.0,30.13,ESE,122,6.0,7.0,73,0.00,,,0.00,weatherlink.com 1.10,2013-06-27 18:15:00,
2013-06-27 11:30:00,71.0,61.0,30.13,ESE,117,2.0,8.0,71,0.00,,,0.00,weatherlink.com 1.10,2013-06-27 18:30:00,
2013-06-27 11:45:00,72.0,62.0,30.13,ESE,122,5.0,7.0,70,0.00,,,0.00,weatherlink.com 1.10,2013-06-27 18:45:00,
2013-06-27 12:00:00,72.3,60.0,30.13,ENE,63,2.0,6.0,66,0.00,,,0.00,weatherlink.com 1.10,2013-06-27 19:00:00,
2013-06-27 12:15:00,73.7,61.0,30.13,ENE,62,3.0,5.0,64,0.00,,,0.00,weatherlink.com 1.10,2013-06-27 19:15:00,
2013-06-27 12:30:00,73.9,62.0,30.12,ENE,60,3.0,4.0,67,0.00,,,0.00,weatherlink.com 1.10,2013-06-27 19:30:00,
2013-06-27 12:45:00,74.2,61.0,30.12,NE,52,4.0,5.0,64,0.00,,,0.00,weatherlink.com 1.10,2013-06-27 19:45:00,
2013-06-27 13:00:00,74.3,61.0,30.12,NE,47,5.0,9.0,63,0.00,,,0.00,weatherlink.com 1.10,2013-06-27 20:00:00,
2013-06-27 13:15:00,74.8,60.0,30.12,ENE,66,5.0,6.0,60,0.00,,,0.00,weatherlink.com 1.10,2013-06-27 20:15:00,
2013-06-27 13:30:00,76.2,64.0,30.11,ENE,73,1.0,5.0,65,0.00,,,0.00,weatherlink.com 1.10,2013-06-27 20:30:00,
2013-06-27 13:45:00,77.2,60.0,30.11,ESE,104,3.0,7.0,55,0.00,,,0.00,weatherlink.com 1.10,2013-06-27 20:45:00,
2013-06-27 14:00:00,78.2,58.0,30.11,WSW,239,1.0,4.0,50,0.00,,,0.00,weatherlink.com 1.10,2013-06-27 21:00:00,
2013-06-27 14:15:00,77.4,60.0,30.11,WNW,300,2.0,4.0,56,0.00,,,0.00,weatherlink.com 1.10,2013-06-27 21:15:00,
2013-06-27 14:30:00,77.9,60.0,30.11,NE,36,2.0,4.0,55,0.00,,,0.00,weatherlink.com 1.10,2013-06-27 21:30:00,
2013-06-27 15:01:00,78.6,60.0,30.11,NW,311,1.0,6.0,54,0.00,,,0.00,weatherlink.com 1.10,2013-06-27 22:01:00,
2013-06-27 15:16:00,78.9,60.0,30.11,NNW,347,3.0,5.0,52,0.00,,,0.00,weatherlink.com 1.10,2013-06-27 22:16:00,
2013-06-27 15:31:00,79.1,59.0,30.11,NNE,25,1.0,6.0,50,0.00,,,0.00,weatherlink.com 1.10,2013-06-27 22:31:00,
2013-06-27 15:46:00,79.2,57.0,30.11,WNW,298,3.0,7.0,47,0.00,,,0.00,weatherlink.com 1.10,2013-06-27 22:46:00,
2013-06-27 16:01:00,79.8,59.0,30.10,West,272,1.0,7.0,50,0.00,,,0.00,weatherlink.com 1.10,2013-06-27 23:01:00,
2013-06-27 16:16:00,79.8,59.0,30.11,West,277,3.0,6.0,49,0.00,,,0.00,weatherlink.com 1.10,2013-06-27 23:16:00,
2013-06-27 16:31:00,79.4,59.0,30.11,West,264,1.0,6.0,50,0.00,,,0.00,weatherlink.com 1.10,2013-06-27 23:31:00,
2013-06-27 17:01:00,78.8,59.0,30.11,NW,306,4.0,9.0,51,0.00,,,0.00,weatherlink.com 1.10,2013-06-28 00:01:00,
2013-06-27 17:16:00,78.9,61.0,30.11,NW,319,6.0,8.0,55,0.00,,,0.00,weatherlink.com 1.10,2013-06-28 00:16:00,
2013-06-27 17:31:00,79.0,61.0,30.11,North,350,5.0,8.0,55,0.00,,,0.00,weatherlink.com 1.10,2013-06-28 00:31:00,
2013-06-27 17:46:00,78.7,62.0,30.11,WNW,291,5.0,9.0,57,0.00,,,0.00,weatherlink.com 1.10,2013-06-28 00:46:00,
2013-06-27 18:01:00,77.8,61.0,30.11,WNW,295,4.0,10.0,57,0.00,,,0.00,weatherlink.com 1.10,2013-06-28 01:01:00,
2013-06-27 18:16:00,77.3,62.0,30.10,WNW,301,6.0,8.0,59,0.00,,,0.00,weatherlink.com 1.10,2013-06-28 01:16:00,
2013-06-27 18:31:00,77.4,61.0,30.10,WNW,301,4.0,8.0,58,0.00,,,0.00,weatherlink.com 1.10,2013-06-28 01:31:00,
2013-06-27 18:46:00,76.7,62.0,30.10,WNW,296,6.0,10.0,61,0.00,,,0.00,weatherlink.com 1.10,2013-06-28 01:46:00,
2013-06-27 19:01:00,76.2,62.0,30.10,WNW,296,4.0,8.0,62,0.00,,,0.00,weatherlink.com 1.10,2013-06-28 02:01:00,
2013-06-27 19:16:00,75.9,62.0,30.11,WNW,288,3.0,8.0,63,0.00,,,0.00,weatherlink.com 1.10,2013-06-28 02:16:00,
2013-06-27 19:31:00,75.3,62.0,30.11,West,275,5.0,7.0,64,0.00,,,0.00,weatherlink.com 1.10,2013-06-28 02:31:00,
2013-06-27 19:46:00,74.4,62.0,30.11,WNW,287,5.0,8.0,65,0.00,,,0.00,weatherlink.com 1.10,2013-06-28 02:46:00,
2013-06-27 20:01:00,73.4,61.0,30.11,WNW,290,5.0,7.0,66,0.00,,,0.00,weatherlink.com 1.10,2013-06-28 03:01:00,
2013-06-27 20:16:00,71.7,61.0,30.11,NW,304,2.0,5.0,68,0.00,,,0.00,weatherlink.com 1.10,2013-06-28 03:16:00,
2013-06-27 20:31:00,70.1,60.0,30.11,NW,316,2.0,5.0,70,0.00,,,0.00,weatherlink.com 1.10,2013-06-28 03:31:00,
2013-06-27 20:46:00,68.8,59.0,30.12,North,357,1.0,2.0,71,0.00,,,0.00,weatherlink.com 1.10,2013-06-28 03:46:00,
2013-06-27 21:01:00,67.9,59.0,30.13,NNW,333,1.0,2.0,73,0.00,,,0.00,weatherlink.com 1.10,2013-06-28 04:01:00,
2013-06-27 21:16:00,66.3,59.0,30.13,NNW,330,1.0,2.0,77,0.00,,,0.00,weatherlink.com 1.10,2013-06-28 04:16:00,
2013-06-27 21:31:00,65.8,59.0,30.14,NW,318,0.0,0.0,78,0.00,,,0.00,weatherlink.com 1.10,2013-06-28 04:31:00,
2013-06-27 21:46:00,65.1,59.0,30.14,NW,318,0.0,0.0,80,0.00,,,0.00,weatherlink.com 1.10,2013-06-28 04:46:00,
2013-06-27 22:01:00,64.4,58.0,30.14,WNW,291,4.0,4.0,79,0.00,,,0.00,weatherlink.com 1.10,2013-06-28 05:01:00,
2013-06-27 22:16:00,64.9,58.0,30.14,WNW,300,3.0,5.0,78,0.00,,,0.00,weatherlink.com 1.10,2013-06-28 05:16:00,
2013-06-27 22:31:00,64.0,57.0,30.14,ENE,78,2.0,2.0,79,0.00,,,0.00,weatherlink.com 1.10,2013-06-28 05:31:00,
2013-06-27 22:46:00,63.8,57.0,30.14,NNE,27,1.0,2.0,78,0.00,,,0.00,weatherlink.com 1.10,2013-06-28 05:46:00,
2013-06-27 23:01:00,63.3,57.0,30.13,NNE,29,0.0,0.0,79,0.00,,,0.00,weatherlink.com 1.10,2013-06-28 06:01:00,
2013-06-27 23:16:00,60.9,56.0,30.14,ESE,117,0.0,3.0,85,0.00,,,0.00,weatherlink.com 1.10,2013-06-28 06:16:00,
2013-06-27 23:31:00,59.6,56.0,30.14,ESE,118,0.0,1.0,87,0.00,,,0.00,weatherlink.com 1.10,2013-06-28 06:31:00,
2013-06-27 23:46:00,59.0,56.0,30.14,ESE,122,0.0,1.0,88,0.00,,,0.00,weatherlink.com 1.10,2013-06-28 06:46:00,